User: anonymous
Location: Fort Wayne
(41.1310°N, 85.1290°W)
Time: 04:11:24
(UTC-04:00)
Language:

Helios 1B - Orbit

View from above orbital plane
View from above orbital plane
View from above satellite
View from above satellite

Ground track
Ground track

The orbit data is extracted from the following two-line orbital elements,

1 25977U 99064A   14274.13250802  .00002034  00000-0  27279-3 0  3833
2 25977 098.1590 353.3601 0000760 164.1330 254.4179 14.80507184797403
Epoch (UTC): 01 October 2014 03:10:48
Eccentricity: 0.0000760
inclination: 98.1590°
perigee height: 627 km
apogee height: 628 km
right ascension of ascending node: 353.3601°
argument of perigee: 164.1330°
revolutions per day: 14.80507184
mean anomaly at epoch: 254.4179°
orbit number at epoch: 79740

The dashed part of the orbit path shows where the satellite is in the earth's shadow,  

DLR